[[{"header":{"parameterUnit":"m.s-1","parameterCategory":1,"la1":30.2991,"la2":30.254,"lo1":-89.0895,"lo2":-89.0444,"dy":0.0017,"dx":0.0017,"nx":28,"ny":28,"refTime":"2023-10-09T21:00:00:Z","depth":0,"parameterNumber":2,"parameterNumberName":"U-component_of_WINDS"},"data":[0,0,0,0,0,0,0,0,0,0,0,0,0,0,0,0,0,0,0,0,0,0,0,0,0,0,0,0,0,0,0,0,0,0,0,0,0,0,0,0,0,0,0,0,0,0,0,0,0,0,0,0,0,0,0,0,0,0,1.8723,1.8725,0,1.8864,1.8866,1.8868,1.8907,1.8906,1.8906,1.8905,1.9046,1.905,1.9055,0,0,0,0,0,0,0,0,0,0,0,0,0,1.8483,1.8488,1.8723,1.8725,1.8727,1.8864,1.8866,1.8868,1.8907,1.8906,1.8905,1.8905,1.9045,1.905,1.9055,0,0,0,0,0,0,0,0,0,0,0,0,0,1.8602,1.8489,1.8723,1.8763,1.8768,1.8864,1.8866,1.8869,1.8908,1.8906,1.8905,1.8904,1.9043,1.9049,1.9056,1.9121,0,0,1.9077,1.908,0,0,0,0,0,0,0,0,1.8595,1.8611,1.8755,1.876,1.8766,1.8867,1.8833,1.8953,1.8908,1.8854,1.8905,1.8904,1.8987,1.8998,1.9027,1.9128,1.9134,1.9077,1.9081,1.9084,1.9086,0,0,0,0,0,0,0,1.8587,1.8605,1.8779,1.8757,1.8764,1.8773,1.8788,1.8856,1.8926,1.8859,1.8862,1.8879,1.899,1.9021,1.9031,1.9136,1.9077,1.9083,1.9087,1.909,1.9295,1.9296,0,0,0,0,0,0,1.8572,1.8598,1.8774,1.8783,1.8676,1.8778,1.8795,1.8836,1.8925,1.8938,1.8879,1.888,1.901,1.9023,1.9036,1.9117,1.9084,1.909,1.9094,1.9293,1.9295,1.9297,0,0,0,0,0,0,1.8567,1.8588,1.8769,1.8692,1.8715,1.8783,1.8828,1.8839,1.887,1.8941,1.8953,1.8899,1.901,1.9027,1.91,1.9122,1.9094,1.91,1.9292,1.9294,1.9296,1.9279,0,0,0,0,0,0,1.856,1.8586,1.8612,1.8692,1.8719,1.8831,1.883,1.8843,1.8882,1.8884,1.8962,1.8973,1.901,1.9089,1.9106,1.9131,1.9105,1.929,1.9293,1.9295,1.9278,1.9281,1.9283,0,0,0,0,0,1.8551,1.8601,1.8613,1.8634,1.8754,1.8832,1.8848,1.889,1.8884,1.891,1.8955,1.8971,1.9118,1.9096,1.9116,1.9143,1.9289,1.9292,1.9295,1.9277,1.928,1.9283,0,0,0,0,0,0,1.8521,1.8613,1.8627,1.8704,1.876,1.8839,1.8873,1.8892,1.895,1.8949,1.8998,1.9015,1.9084,1.9121,1.9096,1.921,1.9203,1.921,1.9183,1.9187,1.9189,1.9178,1.9111,0,0,0,0,0,1.8524,1.8581,1.8657,1.8718,1.8746,1.8805,1.884,1.8868,1.8927,1.8951,1.9001,1.9057,1.9116,1.9154,1.9212,1.9284,1.9301,1.9312,1.9315,1.9316,1.9321,1.9361,1.9366,1.9307,1.9307,1.9307,0,0,1.8529,1.8586,1.8619,1.8714,1.876,1.8817,1.8824,1.8884,1.8926,1.896,1.9031,1.907,1.9136,1.9209,1.9243,1.9242,1.9342,1.932,1.9321,1.9325,1.9365,1.937,1.9375,1.9309,1.9309,1.9309,0,0,1.8568,1.8618,1.8673,1.872,1.8791,1.883,1.8843,1.8919,1.8946,1.9019,1.9045,1.9095,1.9196,1.9241,1.9277,1.9333,1.9349,1.935,1.9362,1.94,1.9404,1.9409,1.9427,1.9433,1.9355,1.9355,1.9355,0,1.8565,1.8653,1.8699,1.8758,1.8798,1.8832,1.8887,1.893,1.9016,1.9042,1.904,1.9166,1.9212,1.9295,1.9309,1.9338,1.9353,1.9341,1.94,1.9405,1.941,1.9427,1.9434,1.9355,1.9355,1.9355,1.9355,0,1.8645,1.8706,1.8742,1.8825,1.8869,1.8926,1.8979,1.9018,1.9042,1.908,1.9153,1.9211,1.928,1.9302,1.9326,1.9388,1.9385,1.9391,1.9385,1.9414,1.9431,1.9439,1.9354,1.9355,1.9355,1.9355,0,0,1.8668,1.8776,1.8788,1.8825,1.8906,1.8953,1.9011,1.908,1.9111,1.9169,1.9218,1.9302,1.9308,1.9348,1.9378,1.9411,1.9449,1.9413,1.9415,1.9416,1.9519,1.9513,1.952,1.9461,1.9462,1.9464,1.9513,0,1.8715,1.8821,1.8864,1.8949,1.9004,1.9037,1.9087,1.9141,1.9179,1.923,1.9271,1.9329,1.9333,1.9358,1.9393,1.9437,1.947,1.9434,1.9505,1.9506,1.9485,1.953,1.9524,1.9568,1.952,1.9522,1.9523,0,1.8785,1.8844,1.8934,1.9007,1.9032,1.9077,1.9143,1.9192,1.9253,1.9278,1.9324,1.9351,1.9411,1.9403,1.9485,1.946,1.9491,1.9517,1.952,1.9526,1.9515,1.9536,1.9583,1.9589,1.9534,1.9533,1.9532,0,1.879,1.8892,1.8959,1.899,1.9078,1.9108,1.9146,1.9206,1.9245,1.9302,1.9327,1.9391,1.9425,1.9473,1.9516,1.9506,1.9594,1.9589,1.9614,1.9613,1.963,1.9628,1.9681,1.9653,1.9653,1.9653,1.9652,0,1.8837,1.8891,1.8963,1.9004,1.9064,1.9112,1.9171,1.921,1.9264,1.9312,1.9345,1.9389,1.9444,1.9495,1.9529,1.9591,1.9607,1.9627,1.9635,1.9624,1.9621,1.9643,1.9641,1.9654,1.9654,1.9654,1.9653,0,1.8852,1.8903,1.8978,1.9055,1.9076,1.9116,1.9182,1.9222,1.9261,1.9322,1.9339,1.94,1.9461,1.9509,1.9589,1.9612,1.9677,1.9687,1.9657,1.966,1.9683,1.9679,1.9751,1.9762,1.9727,1.9728,1.9728,0,1.8878,1.8921,1.9002,1.9037,1.9075,1.9131,1.9171,1.922,1.9259,1.9332,1.9363,1.9427,1.9481,1.9578,1.9628,1.9689,1.97,1.9721,1.9709,1.9695,1.9698,1.9694,1.9698,1.9721,1.9721,1.9721,1.9722,0,1.8919,1.8942,1.8998,1.9063,1.911,1.9163,1.9217,1.9243,1.9302,1.9344,1.9408,1.945,1.9532,1.9594,1.9661,1.9698,1.9719,1.9725,1.9734,1.9721,1.9701,1.9711,1.9659,1.9723,1.9723,1.9723,1.9723,1.9722,1.8939,1.8978,1.9041,1.9102,1.9148,1.9198,1.9239,1.9284,1.9338,1.9409,1.9435,1.95,1.9559,1.9651,1.9689,1.9739,1.974,1.9754,1.9757,1.9759,1.9757,1.9695,1.9752,1.9752,1.9752,1.9752,1.9752,0,1.898,1.9022,1.9078,1.9153,1.9201,1.9218,1.9279,1.9317,1.9374,1.9429,1.9481,1.9554,1.9614,1.967,1.9733,1.9763,1.9774,1.9778,1.9775,1.9783,1.9753,1.9738,1.9768,1.9768,1.9768,1.9768,1.9768,1.9768,1.9006,1.9072,1.9102,1.919,1.9232,1.9297,1.933,1.9375,1.9419,1.9499,1.955,1.9586,1.9641,1.9708,1.9764,1.9779,1.98,1.98,1.9817,1.9788,1.9785,1.9783,1.977,1.9805,1.9805,1.9843,1.9843,1.9844]},{"header":{"parameterUnit":"m.s-1","parameterCategory":1,"la1":30.2991,"la2":30.254,"lo1":-89.0895,"lo2":-89.0444,"dy":0.0017,"dx":0.0017,"nx":28,"ny":28,"refTime":"2023-10-09T21:00:00:Z","depth":0,"parameterNumber":3,"parameterNumberName":"V-component_of_WINDS"},"data":[0,0,0,0,0,0,0,0,0,0,0,0,0,0,0,0,0,0,0,0,0,0,0,0,0,0,0,0,0,0,0,0,0,0,0,0,0,0,0,0,0,0,0,0,0,0,0,0,0,0,0,0,0,0,0,0,0,0,3.0078,3.0077,0,3.0056,3.0055,3.0055,3.0013,3.0012,3.0011,3.001,2.9988,2.9988,2.9988,0,0,0,0,0,0,0,0,0,0,0,0,0,3.0082,3.0082,3.0078,3.0077,3.0077,3.0056,3.0055,3.0055,3.0013,3.0012,3.0011,3.001,2.9988,2.9988,2.9988,0,0,0,0,0,0,0,0,0,0,0,0,0,3.0072,3.0082,3.0078,3.0054,3.0051,3.0056,3.0055,3.0055,3.0013,3.0012,3.0011,3.001,2.9988,2.9988,2.9988,3.0014,0,0,2.9989,2.9989,0,0,0,0,0,0,0,0,3.0073,3.0072,3.0057,3.0055,3.0053,3.0036,3.0049,3.0041,3.0014,3.0028,3.001,3.0009,3.0005,3.0003,3.0002,3.0013,3.0012,2.9989,2.9989,2.9989,2.9989,0,0,0,0,0,0,0,3.0074,3.0073,3.0069,3.0057,3.0054,3.0043,3.0041,3.0047,3.0023,3.0026,3.0023,3.0021,3.0003,3.0002,3.0001,3.0012,2.9989,2.9989,2.9989,2.9989,3.0042,3.0043,0,0,0,0,0,0,3.0078,3.0074,3.007,3.0068,3.006,3.0044,3.0041,3.0042,3.0023,3.0019,3.0022,3.0019,3.0002,3.0001,3.0,3.0028,2.9989,2.9989,2.9989,3.0041,3.0042,3.0044,0,0,0,0,0,0,3.0078,3.0078,3.0071,3.007,3.0068,3.0046,3.0047,3.0043,3.0041,3.002,3.0016,3.0025,3.0001,3.0,3.0011,3.0027,2.9989,2.999,3.0039,3.0041,3.0043,3.0086,0,0,0,0,0,0,3.0079,3.0078,3.0088,3.0071,3.0069,3.0082,3.0048,3.0043,3.0042,3.0038,3.0022,3.0018,3.0,3.0011,3.0011,3.0027,2.999,3.0038,3.004,3.0042,3.0083,3.0089,3.0094,0,0,0,0,0,3.0079,3.0102,3.0089,3.0089,3.0081,3.0083,3.0082,3.0061,3.0043,3.0053,3.0039,3.0019,3.0026,3.0012,3.0012,3.0028,3.0037,3.004,3.0042,3.008,3.0088,3.0094,0,0,0,0,0,0,3.0122,3.0099,3.0085,3.0103,3.0095,3.0076,3.0087,3.0069,3.0066,3.0063,3.0037,3.0033,3.0047,3.0039,3.0025,3.0052,3.0028,3.0031,3.0057,3.0064,3.0069,3.007,2.999,0,0,0,0,0,3.0134,3.0138,3.0117,3.0135,3.0132,3.011,3.0111,3.0095,3.0086,3.0083,3.007,3.0062,3.0062,3.0062,3.0062,3.0082,3.0077,3.0093,3.0099,3.0103,3.0106,3.0114,3.0121,3.0053,3.0053,3.0053,0,0,3.0158,3.0145,3.015,3.0143,3.0135,3.014,3.0108,3.0114,3.0117,3.0083,3.0092,3.0083,3.0072,3.0087,3.0094,3.0081,3.0124,3.0107,3.0111,3.0111,3.0118,3.0124,3.013,3.0055,3.0055,3.0054,0,0,3.0203,3.0195,3.0208,3.0201,3.0189,3.0175,3.0178,3.0161,3.0153,3.0162,3.0137,3.014,3.0141,3.0134,3.0131,3.0173,3.0153,3.0173,3.0202,3.0211,3.0216,3.0221,3.0234,3.024,3.0176,3.0176,3.0176,0,3.0234,3.0239,3.0217,3.0224,3.0221,3.0192,3.0204,3.0198,3.0188,3.0186,3.0172,3.0172,3.0163,3.0176,3.0186,3.0185,3.0186,3.0174,3.0218,3.0222,3.0226,3.0238,3.0244,3.0179,3.0178,3.0178,3.0178,0,3.0277,3.0282,3.0294,3.0283,3.0282,3.0292,3.0271,3.0272,3.0257,3.0243,3.0252,3.024,3.0235,3.0238,3.0223,3.0248,3.024,3.0222,3.0197,3.0235,3.0246,3.0251,3.0182,3.0181,3.018,3.018,0,0,3.0349,3.0326,3.033,3.0325,3.031,3.0312,3.0321,3.0316,3.0317,3.0311,3.0316,3.0318,3.0301,3.0297,3.0281,3.0289,3.0321,3.027,3.0269,3.0279,3.0346,3.0359,3.0365,3.0309,3.0309,3.031,3.0347,0,3.039,3.0403,3.0382,3.04,3.0402,3.0374,3.0381,3.0372,3.036,3.0361,3.0347,3.0348,3.0326,3.0324,3.033,3.0316,3.0334,3.0313,3.0312,3.0313,3.0315,3.0371,3.0384,3.0419,3.0351,3.0352,3.0352,0,3.0439,3.0435,3.0452,3.0435,3.0436,3.0442,3.0436,3.0437,3.0426,3.0417,3.0412,3.0393,3.0399,3.0376,3.0383,3.037,3.0368,3.0361,3.0362,3.036,3.0334,3.0369,3.043,3.0435,3.0359,3.0359,3.0358,0,3.0488,3.0486,3.0496,3.0492,3.0473,3.0478,3.0471,3.0459,3.0457,3.0451,3.045,3.0445,3.0442,3.0439,3.0419,3.0404,3.0428,3.0403,3.0419,3.042,3.0425,3.0424,3.0485,3.0426,3.0426,3.0426,3.0426,0,3.0535,3.0547,3.0517,3.0523,3.0535,3.0512,3.0524,3.0513,3.0503,3.0505,3.0481,3.0484,3.0458,3.0458,3.0442,3.045,3.0449,3.0441,3.0436,3.0442,3.0443,3.044,3.0436,3.0427,3.0427,3.0427,3.0427,0,3.0591,3.0572,3.0581,3.0562,3.0557,3.0566,3.055,3.0554,3.054,3.0544,3.0544,3.0522,3.0521,3.05,3.0495,3.0484,3.0498,3.0489,3.0501,3.0498,3.0514,3.0513,3.0574,3.058,3.0519,3.052,3.052,0,3.0621,3.063,3.0611,3.0611,3.0605,3.0606,3.0603,3.058,3.0579,3.0567,3.0573,3.0569,3.0565,3.0564,3.0548,3.0543,3.0533,3.0555,3.0532,3.0538,3.0532,3.0531,3.0531,3.0559,3.056,3.0561,3.0561,0,3.0677,3.0668,3.0666,3.066,3.0658,3.0653,3.0646,3.0648,3.0622,3.0622,3.062,3.0617,3.0611,3.0607,3.06,3.0591,3.0571,3.0569,3.0572,3.0578,3.0584,3.0579,3.0513,3.0567,3.0567,3.0566,3.0566,3.0566,3.072,3.0726,3.0714,3.0712,3.0704,3.0698,3.0701,3.0687,3.0686,3.0679,3.0665,3.0665,3.0653,3.0641,3.0633,3.0633,3.0621,3.0626,3.0627,3.0628,3.0631,3.0585,3.0631,3.0631,3.0631,3.0631,3.0631,0,3.0774,3.0765,3.0763,3.0754,3.0753,3.0735,3.0726,3.0726,3.0726,3.0717,3.0713,3.0711,3.0707,3.069,3.0684,3.0686,3.0677,3.0686,3.0684,3.0682,3.0642,3.064,3.0693,3.0693,3.0693,3.0693,3.0693,3.0693,3.0801,3.0809,3.0798,3.0801,3.0791,3.0791,3.0787,3.0781,3.0773,3.0772,3.0768,3.0757,3.0744,3.0737,3.0733,3.0728,3.0726,3.0737,3.0729,3.0692,3.0686,3.068,3.0677,3.0737,3.0737,3.0769,3.0769,3.0769]}]]